Date,TemperatureHighF,TemperatureAvgF,TemperatureLowF,DewpointHighF,DewpointAvgF,DewpointLowF,HumidityHigh,HumidityAvg,HumidityLow,PressureMaxIn,PressureMinIn,WindSpeedMaxMPH,WindSpeedAvgMPH,GustSpeedMaxMPH,PrecipitationSumIn
2013-5-1,53,48,44,49,45,42,91,89,86,30.22,30.10,0,0,0,0.02
2013-5-2,58,52,48,54,49,45,91,90,86,30.14,30.01,0,0,0,0.02
2013-5-3,54,51,48,50,47,44,91,88,83,30.01,29.95,1,0,0,0.06
2013-5-4,60,50,44,52,46,41,91,86,75,30.12,30.00,1,0,11,0.19
2013-5-5,62,54,48,52,49,45,91,82,63,30.24,30.12,0,0,0,0.00
2013-5-6,60,56,50,55,52,47,91,86,80,30.21,30.02,0,0,0,0.04
2013-5-7,66,60,56,60,56,53,91,88,77,30.02,29.95,1,0,7,0.00
2013-5-17,64,61,60,56,55,54,85,81,69,29.59,29.56,0,0,0,0.00
2013-5-18,60,56,50,55,51,47,91,84,70,29.87,29.59,2,0,15,0.58
2013-5-19,69,57,51,57,51,47,90,82,65,29.86,29.66,2,0,20,0.60
2013-5-20,62,53,45,49,46,43,91,78,57,29.91,29.77,3,0,16,0.00
2013-5-21,62,54,46,50,45,40,85,74,58,29.93,29.80,5,1,20,0.00
2013-5-22,56,49,44,49,45,40,90,85,72,31.69,29.68,5,1,15,0.18
2013-5-23,49,45,42,42,40,38,88,82,70,29.85,24.04,0,0,0,0.00
2013-5-24,48,44,37,42,39,34,89,84,80,29.85,26.74,3,0,11,0.00
2013-5-25,41,40,39,38,37,36,88,88,87,29.85,29.81,0,0,0,0.00
2013-5-26,42,42,40,40,39,38,92,91,90,29.78,29.66,2,0,16,0.50
2013-5-27,49,46,42,47,44,39,92,92,91,29.82,29.63,1,0,11,0.22
2013-5-28,60,52,41,51,46,39,92,83,64,29.81,29.57,3,0,11,0.00
2013-5-29,58,52,48,54,49,45,91,90,84,29.67,29.54,2,0,0,0.20
2013-5-30,50,48,46,48,45,44,92,92,91,29.69,29.47,2,0,13,1.29
2013-5-31,52,50,48,50,48,45,93,93,92,29.69,29.43,0,0,0,0.12